Simultaneous Nadir Overpasses (SNOs) Predictions

Prediction of SNOs between NPP and PACE Satellite Orbit:

Table of predicted SNOs for the next 14.0 days since TLE Epoch: 11/9/2024
Index Date (NPP) Time (NPP) Lat,Lon (NPP) SZA (NPP ) Date (PACE) Time (PACE) Lat,Lon (PACE) SZA (PACE ) Distance(km) Time Diff (sec)
1 11/09/2024 18:00:36 79.91,-128.17 98.67 11/09/2024 18:00:47 79.91,-128.08 98.65 1.78 11
2 11/11/2024 21:36:16 -79.95, -2.41 80.68 11/11/2024 21:36:51 -79.94, -2.31 80.71 2.11 35
3 11/11/2024 22:26:53 79.68, 167.37 98.88 11/11/2024 22:25:53 79.69, 167.28 98.91 1.90 60
4 11/14/2024 01:11:57 79.98, 123.32 99.96 11/14/2024 01:12:54 79.98, 123.36 99.93 0.81 57
5 11/14/2024 02:02:36 -79.82, -67.80 80.32 11/14/2024 02:01:58 -79.82, -67.66 80.32 2.89 38
6 11/16/2024 05:38:15 79.81, 58.41 100.21 11/16/2024 05:37:58 79.81, 58.39 100.22 0.45 17
7 11/18/2024 09:13:55 -79.87,-176.07 79.16 11/18/2024 09:13:58 -79.87,-176.05 79.17 0.44 3
8 11/20/2024 12:49:34 79.88, -50.07 101.36 11/20/2024 12:49:55 79.88, -50.08 101.35 0.38 21
9 11/20/2024 13:40:05 -79.45, 121.00 79.35 11/20/2024 13:38:51 -79.40, 120.97 79.36 5.90 74
10 11/22/2024 16:25:14 -79.95, 75.27 78.04 11/22/2024 16:25:52 -79.94, 75.42 78.08 3.21 38



Historial Predications of SNOs between NPP and PACE
